M I D A S
Marine Information and Data Acquisition System
Tripno 998 of the Zeeleeuw from 2005-07-18 09:06:22 to 2005-07-18 11:51:56
Back to CruiseResearch ActivitiesStationsMapUnderway DataData graphs

EquipmentUnitsComments
TimeDGPSUTC
LatitudeDGPSDM.mWGS84
LongitudeDGPSDM.mWGS84
SpeedMeteo Stationm/sRelative wind speed
DirectionMeteo StationdegRelative wind direction
TemperatureMeteo Stationdeg CelciusAir temperature
PressureMeteo StationPaAtmospheric pressure
HumidityMeteo Station%Relative humidity
Missing or incorrect values are displayed as -999
Metereological data collected by the RV Zeeleeuw from 2005-07-18 08:07:49 to 2005-07-18 12:01:33
                                                                                    Next 1000 lines
Time Latitude Longitude Speed Direction Temperature Pressure Humidity
2005-07-18 08:07:59 51°13.707 2°55.869 2 40 19.4 100840 74
2005-07-18 08:08:04 51°13.707 2°55.869 2 34 19.3 100840 74
2005-07-18 08:08:09 51°13.707 2°55.869 2.2 35 19.3 100840 74
2005-07-18 08:08:14 51°13.707 2°55.869 2.5 32 19.3 100840 74
2005-07-18 08:08:19 51°13.707 2°55.869 3.1 34 19.3 100840 74
2005-07-18 08:08:24 51°13.707 2°55.869 3.8 52 19.4 100840 74
2005-07-18 08:08:29 51°13.707 2°55.869 2.4 52 19.4 100840 74
2005-07-18 08:08:33 51°13.707 2°55.869 2.4 40 19.4 100840 74
2005-07-18 08:08:39 51°13.707 2°55.869 2.7 48 19.4 100840 74
2005-07-18 08:08:44 51°13.707 2°55.869 3.1 51 19.3 100830 74
2005-07-18 08:08:49 51°13.707 2°55.869 3.4 65 19.3 100830 74
2005-07-18 08:08:54 51°13.707 2°55.869 3.2 84 19.3 100840 74
2005-07-18 08:08:59 51°13.707 2°55.869 2.9 67 19.3 100840 74
2005-07-18 08:09:04 51°13.707 2°55.869 3 52 19.3 100840 74
2005-07-18 08:09:09 51°13.707 2°55.869 2.7 41 19.3 100840 74
2005-07-18 08:09:14 51°13.707 2°55.869 2.5 55 19.3 100840 74
2005-07-18 08:09:19 51°13.707 2°55.869 2.4 50 19.3 100840 74
2005-07-18 08:09:24 51°13.707 2°55.869 2.6 57 19.3 100840 74
2005-07-18 08:09:29 51°13.707 2°55.869 2.6 52 19.3 100840 74
2005-07-18 08:09:33 51°13.707 2°55.869 2.9 50 19.3 100840 74
2005-07-18 08:09:39 51°13.707 2°55.869 2.7 41 19.3 100840 74
2005-07-18 08:09:43 51°13.707 2°55.869 2.3 48 19.3 100830 74
2005-07-18 08:09:49 51°13.707 2°55.869 2.9 26 19.3 100830 74
2005-07-18 08:09:54 51°13.707 2°55.869 3.3 56 19.3 100840 74
2005-07-18 08:09:59 51°13.707 2°55.869 3.8 47 19.3 100840 74
2005-07-18 08:10:04 51°13.707 2°55.869 3.6 47 19.3 100840 74
2005-07-18 08:10:09 51°13.707 2°55.869 4 45 19.3 100840 74
2005-07-18 08:10:14 51°13.707 2°55.869 2.9 56 19.3 100840 74
2005-07-18 08:10:19 51°13.707 2°55.869 2.2 65 19.3 100840 74
2005-07-18 08:10:24 51°13.707 2°55.869 2.1 59 19.3 100840 74
2005-07-18 08:10:29 51°13.707 2°55.869 2.5 40 19.3 100840 74
2005-07-18 08:10:33 51°13.707 2°55.868 2.1 48 19.3 100830 74
2005-07-18 08:10:39 51°13.707 2°55.868 2.1 57 19.3 100830 74
2005-07-18 08:10:44 51°13.707 2°55.868 2.2 50 19.3 100840 74
2005-07-18 08:10:49 51°13.707 2°55.868 3.2 44 19.3 100840 74
2005-07-18 08:10:53 51°13.707 2°55.868 2.8 55 19.3 100840 74
2005-07-18 08:10:59 51°13.707 2°55.868 3 59 19.3 100840 74
2005-07-18 08:11:04 51°13.707 2°55.868 2.9 38 19.3 100840 74
2005-07-18 08:11:09 51°13.707 2°55.868 2.7 33 19.3 100840 74
2005-07-18 08:11:13 51°13.707 2°55.868 2 37 19.3 100840 74
2005-07-18 08:11:19 51°13.707 2°55.868 2.7 87 19.3 100840 74
2005-07-18 08:11:24 51°13.707 2°55.868 2.6 98 19.3 100840 74
2005-07-18 08:11:29 51°13.707 2°55.868 2.4 91 19.3 100840 74
2005-07-18 08:11:33 51°13.707 2°55.868 2.3 93 19.3 100840 74
2005-07-18 08:11:39 51°13.707 2°55.868 2.4 57 19.3 100840 74
2005-07-18 08:11:44 51°13.707 2°55.868 2 55 19.3 100840 74
2005-07-18 08:11:49 51°13.707 2°55.868 2.2 41 19.3 100840 74
2005-07-18 08:11:54 51°13.707 2°55.868 2.4 54 19.3 100840 74
2005-07-18 08:11:59 51°13.707 2°55.868 2.4 65 19.3 100840 74
2005-07-18 08:12:04 51°13.707 2°55.868 2.1 55 19.3 100840 75
2005-07-18 08:12:09 51°13.707 2°55.868 2.3 46 19.3 100840 75
2005-07-18 08:12:14 51°13.707 2°55.868 2.6 46 19.3 100840 75
2005-07-18 08:12:19 51°13.707 2°55.868 2.7 50 19.3 100840 75
2005-07-18 08:12:24 51°13.706 2°55.869 2.9 60 19.3 100840 75
2005-07-18 08:12:29 51°13.706 2°55.869 4 45 19.3 100840 75
2005-07-18 08:12:34 51°13.706 2°55.869 2.9 41 19.3 100840 75
2005-07-18 08:12:39 51°13.706 2°55.869 2.9 40 19.3 100840 75
2005-07-18 08:12:44 51°13.706 2°55.869 2.5 40 19.4 100840 75
2005-07-18 08:12:49 51°13.706 2°55.869 1.9 51 19.4 100840 75
2005-07-18 08:12:54 51°13.706 2°55.869 2.3 65 19.3 100840 74
2005-07-18 08:12:59 51°13.706 2°55.869 2.3 44 19.3 100840 74
2005-07-18 08:13:04 51°13.706 2°55.869 2.2 59 19.3 100840 74
2005-07-18 08:13:09 51°13.706 2°55.869 2.6 38 19.3 100840 74
2005-07-18 08:13:13 51°13.706 2°55.869 2.6 47 19.4 100840 75
2005-07-18 08:13:19 51°13.706 2°55.869 1.7 64 19.4 100840 75
2005-07-18 08:13:24 51°13.706 2°55.869 2.1 45 19.4 100840 75
2005-07-18 08:13:29 51°13.706 2°55.869 1.9 61 19.4 100840 75
2005-07-18 08:13:34 51°13.706 2°55.87 1.8 57 19.4 100840 75
2005-07-18 08:13:39 51°13.706 2°55.869 1.8 74 19.4 100840 75
2005-07-18 08:13:44 51°13.706 2°55.869 1.7 94 19.4 100840 75
2005-07-18 08:13:49 51°13.706 2°55.869 2.5 87 19.4 100840 75
2005-07-18 08:13:54 51°13.706 2°55.869 2.4 47 19.4 100840 75
2005-07-18 08:13:59 51°13.706 2°55.869 2.2 79 19.4 100840 75
2005-07-18 08:14:04 51°13.706 2°55.869 2.2 81 19.4 100840 75
2005-07-18 08:14:09 51°13.706 2°55.869 2.2 74 19.4 100840 75
2005-07-18 08:14:13 51°13.706 2°55.869 2.5 89 19.4 100840 75
2005-07-18 08:14:19 51°13.706 2°55.869 2.5 97 19.4 100840 75
2005-07-18 08:14:23 51°13.706 2°55.87 2 95 19.4 100840 76
2005-07-18 08:14:29 51°13.706 2°55.87 2.3 90 19.4 100840 76
2005-07-18 08:14:33 51°13.706 2°55.869 1.9 88 19.4 100840 76
2005-07-18 08:14:39 51°13.706 2°55.869 1.8 64 19.4 100840 76
2005-07-18 08:14:44 51°13.706 2°55.869 2.1 96 19.4 100840 76
2005-07-18 08:14:49 51°13.706 2°55.869 2.4 86 19.4 100840 76
2005-07-18 08:14:54 51°13.706 2°55.869 1.9 84 19.4 100840 76
2005-07-18 08:14:59 51°13.707 2°55.869 1.9 78 19.4 100840 76
2005-07-18 08:15:04 51°13.707 2°55.869 2.1 80 19.4 100840 76
2005-07-18 08:15:09 51°13.707 2°55.869 1.9 71 19.4 100840 76
2005-07-18 08:15:13 51°13.707 2°55.869 1.9 75 19.4 100840 75
2005-07-18 08:15:19 51°13.707 2°55.869 2.2 84 19.4 100840 75
2005-07-18 08:15:24 51°13.707 2°55.869 2.7 82 19.4 100840 75
2005-07-18 08:15:29 51°13.707 2°55.869 2.4 79 19.4 100840 75
2005-07-18 08:15:33 51°13.707 2°55.869 1.9 77 19.4 100850 75
2005-07-18 08:15:39 51°13.707 2°55.869 2.2 80 19.4 100850 75
2005-07-18 08:15:44 51°13.707 2°55.869 2.2 80 19.4 100840 75
2005-07-18 08:15:49 51°13.707 2°55.869 2.2 82 19.4 100840 75
2005-07-18 08:15:54 51°13.707 2°55.869 2.6 86 19.4 100840 75
2005-07-18 08:15:59 51°13.707 2°55.869 2.4 73 19.4 100840 75
2005-07-18 08:16:03 51°13.707 2°55.869 3.2 65 19.4 100840 75
2005-07-18 08:16:09 51°13.707 2°55.869 2.9 66 19.4 100840 75
2005-07-18 08:16:14 51°13.707 2°55.869 2.4 70 19.4 100840 75
2005-07-18 08:16:19 51°13.707 2°55.869 2.1 87 19.4 100840 75
2005-07-18 08:16:24 51°13.707 2°55.869 2.1 95 19.4 100840 75
2005-07-18 08:16:29 51°13.707 2°55.869 2.7 90 19.4 100840 75
2005-07-18 08:16:34 51°13.707 2°55.869 2.5 84 19.4 100840 75
2005-07-18 08:16:39 51°13.707 2°55.869 2.1 79 19.4 100840 75
2005-07-18 08:16:44 51°13.707 2°55.869 2.6 87 19.4 100850 75
2005-07-18 08:16:49 51°13.707 2°55.869 2.2 87 19.4 100850 75
2005-07-18 08:16:53 51°13.707 2°55.869 2.3 83 19.4 100850 75
2005-07-18 08:16:59 51°13.707 2°55.869 2.2 91 19.4 100850 75
2005-07-18 08:17:04 51°13.707 2°55.869 2.6 90 19.4 100840 75
2005-07-18 08:17:09 51°13.707 2°55.869 2.2 77 19.4 100840 75
2005-07-18 08:17:13 51°13.707 2°55.869 2 56 19.4 100850 75
2005-07-18 08:17:19 51°13.707 2°55.869 1.6 53 19.4 100850 75
2005-07-18 08:17:24 51°13.707 2°55.869 1.5 53 19.4 100850 75
2005-07-18 08:17:29 51°13.707 2°55.869 1.9 51 19.4 100850 75
2005-07-18 08:17:33 51°13.707 2°55.869 1.8 72 19.4 100850 76
2005-07-18 08:17:39 51°13.706 2°55.869 1.9 67 19.4 100850 76
2005-07-18 08:17:44 51°13.706 2°55.869 1.9 63 19.4 100850 76
2005-07-18 08:17:49 51°13.706 2°55.869 2 59 19.4 100850 76
2005-07-18 08:17:53 51°13.706 2°55.869 2.2 47 19.4 100850 76
2005-07-18 08:17:59 51°13.707 2°55.869 2 69 19.4 100850 76
2005-07-18 08:18:04 51°13.707 2°55.869 2 71 19.4 100850 76
2005-07-18 08:18:09 51°13.706 2°55.869 2.3 75 19.4 100850 76
2005-07-18 08:18:13 51°13.706 2°55.869 2.9 78 19.4 100850 76
2005-07-18 08:18:19 51°13.706 2°55.869 2.5 78 19.4 100850 76
2005-07-18 08:18:24 51°13.706 2°55.869 2 73 19.4 100850 76
2005-07-18 08:18:29 51°13.706 2°55.869 2.4 80 19.4 100850 76
2005-07-18 08:18:34 51°13.706 2°55.869 2 74 19.4 100850 76
2005-07-18 08:18:39 51°13.706 2°55.869 2.1 83 19.4 100850 76
2005-07-18 08:18:44 51°13.706 2°55.869 1.5 72 19.4 100850 75
2005-07-18 08:18:49 51°13.706 2°55.869 2.1 85 19.4 100850 75
2005-07-18 08:18:54 51°13.707 2°55.869 2.5 83 19.4 100850 76
2005-07-18 08:18:59 51°13.707 2°55.869 2.9 87 19.4 100850 76
2005-07-18 08:19:04 51°13.707 2°55.869 2.3 76 19.4 100850 76
2005-07-18 08:19:09 51°13.707 2°55.869 2.8 99 19.4 100850 76
2005-07-18 08:19:14 51°13.707 2°55.869 2.7 97 19.4 100850 76
2005-07-18 08:19:19 51°13.707 2°55.869 2.9 93 19.4 100850 76
2005-07-18 08:19:24 51°13.707 2°55.869 2.4 93 19.4 100850 76
2005-07-18 08:19:29 51°13.707 2°55.868 2.6 87 19.4 100850 76
2005-07-18 08:19:34 51°13.707 2°55.869 2.4 82 19.4 100850 76
2005-07-18 08:19:39 51°13.707 2°55.869 2.2 76 19.4 100850 76
2005-07-18 08:19:44 51°13.707 2°55.869 2.4 69 19.4 100850 76
2005-07-18 08:19:49 51°13.707 2°55.868 2.2 66 19.4 100850 76
2005-07-18 08:19:53 51°13.707 2°55.868 2.5 79 19.4 100850 75
2005-07-18 08:19:59 51°13.707 2°55.868 1.9 80 19.4 100850 75
2005-07-18 08:20:04 51°13.707 2°55.868 1.8 61 19.4 100850 75
2005-07-18 08:20:09 51°13.707 2°55.868 2.7 83 19.4 100850 75
2005-07-18 08:20:14 51°13.707 2°55.868 2.6 55 19.4 100860 75
2005-07-18 08:20:19 51°13.707 2°55.868 2.2 78 19.4 100860 75
2005-07-18 08:20:24 51°13.707 2°55.868 2.6 89 19.3 100850 75
2005-07-18 08:20:29 51°13.707 2°55.868 1.8 80 19.3 100850 75
2005-07-18 08:20:34 51°13.707 2°55.868 2.3 88 19.4 100850 75
2005-07-18 08:20:39 51°13.707 2°55.868 2.4 94 19.4 100850 75
2005-07-18 08:20:44 51°13.707 2°55.868 2.4 87 19.4 100850 75
2005-07-18 08:20:49 51°13.707 2°55.868 2.6 95 19.4 100850 75
2005-07-18 08:20:53 51°13.707 2°55.868 3.4 89 19.4 100860 76
2005-07-18 08:20:59 51°13.707 2°55.868 2.4 79 19.4 100860 76
2005-07-18 08:21:04 51°13.707 2°55.868 2.7 80 19.4 100860 76
2005-07-18 08:21:09 51°13.707 2°55.868 2.2 76 19.4 100860 76
2005-07-18 08:21:14 51°13.707 2°55.868 2.7 79 19.3 100860 76
2005-07-18 08:21:19 51°13.707 2°55.868 3.1 78 19.3 100860 76
2005-07-18 08:21:24 51°13.707 2°55.868 2.4 68 19.3 100860 76
2005-07-18 08:21:29 51°13.707 2°55.868 2 110 19.3 100860 76
2005-07-18 08:21:34 51°13.707 2°55.868 2 83 19.3 100860 76
2005-07-18 08:21:39 51°13.707 2°55.868 2.1 81 19.3 100860 76
2005-07-18 08:21:44 51°13.707 2°55.868 2 76 19.3 100860 76
2005-07-18 08:21:49 51°13.707 2°55.868 3.1 91 19.3 100860 76
2005-07-18 08:21:54 51°13.708 2°55.868 2.6 85 19.3 100860 76
2005-07-18 08:21:59 51°13.708 2°55.867 2.8 84 19.3 100860 76
2005-07-18 08:22:04 51°13.708 2°55.867 3.1 89 19.3 100860 76
2005-07-18 08:22:09 51°13.708 2°55.867 2.3 73 19.3 100860 76
2005-07-18 08:22:13 51°13.707 2°55.867 3.1 87 19.3 100860 76
2005-07-18 08:22:19 51°13.707 2°55.867 2.8 96 19.3 100860 76
2005-07-18 08:22:24 51°13.707 2°55.867 2.8 81 19.3 100860 76
2005-07-18 08:22:29 51°13.707 2°55.867 3.2 97 19.3 100860 76
2005-07-18 08:22:34 51°13.707 2°55.868 3 94 19.3 100860 76
2005-07-18 08:22:39 51°13.707 2°55.868 2.9 95 19.3 100860 76
2005-07-18 08:22:44 51°13.707 2°55.868 2.3 70 19.3 100860 76
2005-07-18 08:22:49 51°13.707 2°55.868 3.2 85 19.3 100860 76
2005-07-18 08:22:54 51°13.707 2°55.868 3.1 99 19.3 100860 76
2005-07-18 08:22:59 51°13.707 2°55.868 2.2 76 19.3 100860 76
2005-07-18 08:23:04 51°13.707 2°55.868 2.1 82 19.3 100860 76
2005-07-18 08:23:09 51°13.707 2°55.868 1.8 83 19.3 100860 76
2005-07-18 08:23:13 51°13.707 2°55.868 2.3 95 19.3 100860 76
2005-07-18 08:23:19 51°13.707 2°55.868 2.9 89 19.3 100860 76
2005-07-18 08:23:24 51°13.707 2°55.868 2.4 88 19.3 100860 76
2005-07-18 08:23:29 51°13.707 2°55.867 3.2 97 19.3 100860 76
2005-07-18 08:23:33 51°13.707 2°55.867 3 108 19.3 100860 76
2005-07-18 08:23:39 51°13.707 2°55.866 2.4 93 19.3 100860 76
2005-07-18 08:23:44 51°13.707 2°55.867 2.8 76 19.3 100860 76
2005-07-18 08:23:49 51°13.707 2°55.867 2.2 64 19.3 100860 76
2005-07-18 08:23:53 51°13.707 2°55.867 2.6 54 19.3 100860 76
2005-07-18 08:23:59 51°13.707 2°55.867 2.7 68 19.3 100860 76
2005-07-18 08:24:04 51°13.707 2°55.867 3.2 71 19.2 100860 75
2005-07-18 08:24:09 51°13.707 2°55.867 3.5 69 19.2 100860 75
2005-07-18 08:24:14 51°13.707 2°55.867 4.2 63 19.2 100860 76
2005-07-18 08:24:19 51°13.707 2°55.867 3.3 87 19.2 100860 76
2005-07-18 08:24:24 51°13.707 2°55.868 3.4 94 19.2 100860 76
2005-07-18 08:24:29 51°13.707 2°55.868 3.5 67 19.2 100860 76
2005-07-18 08:24:33 51°13.707 2°55.868 2.9 71 19.2 100860 76
2005-07-18 08:24:39 51°13.706 2°55.869 3 73 19.2 100860 76
2005-07-18 08:24:44 51°13.706 2°55.869 3.3 78 19.2 100860 76
2005-07-18 08:24:49 51°13.706 2°55.87 2.5 70 19.2 100860 76
2005-07-18 08:24:54 51°13.706 2°55.87 2.5 66 19.2 100860 76
2005-07-18 08:24:59 51°13.707 2°55.871 3.7 73 19.2 100860 76
2005-07-18 08:25:04 51°13.707 2°55.871 4.3 77 19.2 100860 76
2005-07-18 08:25:09 51°13.707 2°55.87 4.1 88 19.2 100860 76
2005-07-18 08:25:13 51°13.707 2°55.87 4.2 90 19.2 100860 76
2005-07-18 08:25:19 51°13.706 2°55.87 4.1 97 19.2 100860 76
2005-07-18 08:25:24 51°13.706 2°55.87 3.8 90 19.2 100860 76
2005-07-18 08:25:29 51°13.707 2°55.87 3.4 100 19.2 100860 76
2005-07-18 08:25:33 51°13.707 2°55.87 3 86 19.2 100860 76
2005-07-18 08:25:39 51°13.707 2°55.87 2 90 19.2 100860 76
2005-07-18 08:25:44 51°13.707 2°55.871 2.2 85 19.2 100870 76
2005-07-18 08:25:49 51°13.707 2°55.871 2.1 69 19.2 100870 76
2005-07-18 08:25:54 51°13.707 2°55.871 2.5 87 19.2 100860 76
2005-07-18 08:25:59 51°13.707 2°55.87 2.5 74 19.2 100860 76
2005-07-18 08:26:04 51°13.706 2°55.87 3.4 64 19.2 100870 76
2005-07-18 08:26:09 51°13.706 2°55.869 2.7 78 19.2 100870 76
2005-07-18 08:26:14 51°13.706 2°55.868 2.8 82 19.2 100860 76
2005-07-18 08:26:19 51°13.706 2°55.868 4.1 80 19.2 100860 76
2005-07-18 08:26:24 51°13.706 2°55.868 3.8 84 19.2 100860 76
2005-07-18 08:26:29 51°13.706 2°55.867 4.5 52 19.2 100860 76
2005-07-18 08:26:34 51°13.706 2°55.867 4 80 19.2 100870 76
2005-07-18 08:26:39 51°13.706 2°55.867 4.3 64 19.2 100870 76
2005-07-18 08:26:44 51°13.706 2°55.867 4 61 19.2 100870 76
2005-07-18 08:26:49 51°13.706 2°55.868 4.3 60 19.2 100870 76
2005-07-18 08:26:54 51°13.706 2°55.868 4.9 65 19.2 100870 76
2005-07-18 08:26:59 51°13.706 2°55.868 3.8 67 19.2 100870 76
2005-07-18 08:27:04 51°13.706 2°55.868 3.6 85 19.2 100870 76
2005-07-18 08:27:09 51°13.706 2°55.868 4.2 72 19.2 100870 76
2005-07-18 08:27:14 51°13.706 2°55.868 4.1 73 19.2 100870 75
2005-07-18 08:27:19 51°13.706 2°55.868 3 71 19.2 100870 75
2005-07-18 08:27:24 51°13.706 2°55.868 4.1 88 19.2 100870 76
2005-07-18 08:27:29 51°13.706 2°55.868 3.4 65 19.2 100870 76
2005-07-18 08:27:33 51°13.706 2°55.868 3.2 95 19.2 100870 76
2005-07-18 08:27:39 51°13.706 2°55.868 3.8 86 19.2 100870 76
2005-07-18 08:27:44 51°13.706 2°55.868 3.1 76 19.1 100870 76
2005-07-18 08:27:49 51°13.706 2°55.868 3 66 19.1 100870 76
2005-07-18 08:27:53 51°13.706 2°55.868 2.7 77 19.1 100870 76
2005-07-18 08:27:59 51°13.706 2°55.868 2.6 69 19.1 100870 76
2005-07-18 08:28:04 51°13.706 2°55.868 2.5 71 19.1 100870 76
2005-07-18 08:28:09 51°13.706 2°55.868 3.6 96 19.1 100870 76
2005-07-18 08:28:14 51°13.706 2°55.868 4 92 19.1 100870 76
2005-07-18 08:28:19 51°13.706 2°55.868 3 95 19.1 100870 76
2005-07-18 08:28:24 51°13.706 2°55.868 2.9 66 19.1 100870 76
2005-07-18 08:28:29 51°13.706 2°55.868 3.3 76 19.1 100870 76
2005-07-18 08:28:34 51°13.706 2°55.868 4.1 67 19.1 100870 77
2005-07-18 08:28:39 51°13.706 2°55.869 3.1 75 19.1 100870 77
2005-07-18 08:28:44 51°13.706 2°55.869 3.4 91 19.1 100880 76
2005-07-18 08:28:49 51°13.706 2°55.869 3.3 82 19.1 100880 76
2005-07-18 08:28:53 51°13.706 2°55.869 2.2 78 19.1 100870 76
2005-07-18 08:28:59 51°13.706 2°55.869 3 82 19.1 100870 76
2005-07-18 08:29:04 51°13.706 2°55.869 3.2 90 19.1 100870 76
2005-07-18 08:29:09 51°13.706 2°55.869 2.9 77 19.1 100870 76
2005-07-18 08:29:13 51°13.706 2°55.868 2.2 78 19.1 100880 76
2005-07-18 08:29:19 51°13.706 2°55.868 2.5 76 19.1 100880 76
2005-07-18 08:29:24 51°13.706 2°55.869 2.7 78 19.1 100880 77
2005-07-18 08:29:29 51°13.706 2°55.869 2.8 81 19.1 100880 77
2005-07-18 08:29:33 51°13.706 2°55.868 2.7 82 19.1 100880 76
2005-07-18 08:29:39 51°13.706 2°55.868 2.7 70 19.1 100880 76
2005-07-18 08:29:44 51°13.706 2°55.868 2.8 95 19.1 100880 77
2005-07-18 08:29:49 51°13.706 2°55.868 3.6 92 19.1 100880 77
2005-07-18 08:29:54 51°13.706 2°55.868 3.2 86 19.1 100880 77
2005-07-18 08:29:59 51°13.706 2°55.868 3.5 75 19.1 100880 77
2005-07-18 08:30:04 51°13.706 2°55.867 3.2 103 19.2 100880 77
2005-07-18 08:30:09 51°13.706 2°55.867 2.6 99 19.2 100880 77
2005-07-18 08:30:14 51°13.706 2°55.867 2.5 90 19.1 100880 77
2005-07-18 08:30:19 51°13.706 2°55.867 2.7 99 19.1 100880 77
2005-07-18 08:30:24 51°13.706 2°55.867 2.5 70 19.2 100880 77
2005-07-18 08:30:29 51°13.706 2°55.867 3.6 61 19.2 100880 77
2005-07-18 08:30:34 51°13.706 2°55.867 3.6 86 19.2 100880 77
2005-07-18 08:30:39 51°13.706 2°55.867 2.5 69 19.2 100880 77
2005-07-18 08:30:44 51°13.706 2°55.867 3.2 83 19.2 100880 77
2005-07-18 08:30:49 51°13.706 2°55.867 2.7 89 19.2 100880 77
2005-07-18 08:30:54 51°13.706 2°55.867 2.5 90 19.2 100880 77
2005-07-18 08:30:59 51°13.706 2°55.867 3 86 19.2 100880 77
2005-07-18 08:31:04 51°13.706 2°55.868 3.3 77 19.1 100880 76
2005-07-18 08:31:09 51°13.706 2°55.867 2.4 67 19.1 100880 76
2005-07-18 08:31:13 51°13.706 2°55.868 2.8 87 19.2 100880 77
2005-07-18 08:31:19 51°13.706 2°55.868 3.9 88 19.2 100880 77
2005-07-18 08:31:24 51°13.706 2°55.868 3.1 83 19.2 100880 77
2005-07-18 08:31:29 51°13.706 2°55.868 3.7 94 19.2 100880 77
2005-07-18 08:31:34 51°13.706 2°55.868 3.5 67 19.2 100880 76
2005-07-18 08:31:39 51°13.706 2°55.868 3.1 81 19.2 100880 76
2005-07-18 08:31:44 51°13.706 2°55.868 3.4 77 19.2 100880 76
2005-07-18 08:31:49 51°13.706 2°55.869 3.5 73 19.2 100880 76
2005-07-18 08:31:53 51°13.706 2°55.869 3.1 85 19.1 100880 76
2005-07-18 08:31:59 51°13.706 2°55.869 3.3 76 19.1 100880 76
2005-07-18 08:32:04 51°13.706 2°55.869 3.3 109 19.1 100880 76
2005-07-18 08:32:09 51°13.706 2°55.869 3.8 81 19.1 100880 76
2005-07-18 08:32:14 51°13.706 2°55.869 3.2 102 19.1 100880 76
2005-07-18 08:32:19 51°13.706 2°55.868 2.4 93 19.1 100880 76
2005-07-18 08:32:24 51°13.706 2°55.868 2.7 108 19.1 100880 76
2005-07-18 08:32:29 51°13.706 2°55.868 2.4 92 19.1 100880 76
2005-07-18 08:32:34 51°13.706 2°55.868 2.8 87 19.1 100880 76
2005-07-18 08:32:39 51°13.706 2°55.868 3.3 92 19.1 100880 76
2005-07-18 08:32:44 51°13.706 2°55.868 3.3 119 19.1 100880 76
2005-07-18 08:32:49 51°13.706 2°55.868 2.9 134 19.1 100880 76
2005-07-18 08:32:54 51°13.706 2°55.868 3.4 120 19.1 100880 76
2005-07-18 08:32:59 51°13.706 2°55.868 2 119 19.1 100880 76
2005-07-18 08:33:04 51°13.706 2°55.868 2.5 92 19.1 100880 77
2005-07-18 08:33:09 51°13.706 2°55.868 2.2 93 19.1 100880 77
2005-07-18 08:33:14 51°13.706 2°55.868 2.6 94 19.1 100880 77
2005-07-18 08:33:19 51°13.706 2°55.868 2.1 81 19.1 100880 77
2005-07-18 08:33:24 51°13.706 2°55.868 2.4 89 19.1 100880 76
2005-07-18 08:33:29 51°13.706 2°55.868 2.2 94 19.1 100880 76
2005-07-18 08:33:33 51°13.706 2°55.868 2.9 87 19.1 100880 76
2005-07-18 08:33:39 51°13.706 2°55.868 2.9 92 19.1 100880 76
2005-07-18 08:33:44 51°13.706 2°55.868 2.5 65 19.1 100880 77
2005-07-18 08:33:49 51°13.706 2°55.868 2.5 63 19.1 100880 77
2005-07-18 08:33:53 51°13.707 2°55.868 2.7 63 19.1 100880 76
2005-07-18 08:33:59 51°13.707 2°55.868 2.4 79 19.1 100880 76
2005-07-18 08:34:04 51°13.707 2°55.868 2.3 76 19.1 100880 76
2005-07-18 08:34:09 51°13.706 2°55.868 2.5 88 19.1 100880 76
2005-07-18 08:34:14 51°13.706 2°55.868 2.7 95 19.1 100880 76
2005-07-18 08:34:19 51°13.706 2°55.868 2.2 68 19.1 100880 76
2005-07-18 08:34:24 51°13.706 2°55.868 2.2 67 19.1 100880 76
2005-07-18 08:34:29 51°13.706 2°55.868 3.7 40 19.1 100880 76
2005-07-18 08:34:34 51°13.706 2°55.868 3 50 19.1 100880 76
2005-07-18 08:34:39 51°13.706 2°55.868 2.4 85 19.1 100880 76
2005-07-18 08:34:44 51°13.706 2°55.868 2.4 99 19.1 100880 76
2005-07-18 08:34:49 51°13.706 2°55.868 2.7 90 19.1 100880 76
2005-07-18 08:34:54 51°13.706 2°55.868 2.4 85 19.1 100880 77
2005-07-18 08:34:59 51°13.706 2°55.868 2.9 103 19.1 100880 77
2005-07-18 08:35:04 51°13.706 2°55.868 3.2 94 19.1 100880 77
2005-07-18 08:35:09 51°13.706 2°55.868 3.8 86 19.1 100880 77
2005-07-18 08:35:14 51°13.706 2°55.868 3.5 66 19.1 100880 77
2005-07-18 08:35:19 51°13.706 2°55.868 3.5 64 19.1 100880 77
2005-07-18 08:35:24 51°13.706 2°55.868 2.8 68 19.1 100880 77
2005-07-18 08:35:29 51°13.706 2°55.868 3.6 72 19.1 100880 77
2005-07-18 08:35:34 51°13.706 2°55.868 3.9 71 19.1 100880 76
2005-07-18 08:35:39 51°13.706 2°55.869 3.5 48 19.1 100880 76
2005-07-18 08:35:44 51°13.706 2°55.869 3.2 63 19.1 100880 76
2005-07-18 08:35:49 51°13.706 2°55.868 3.7 90 19.1 100880 76
2005-07-18 08:35:53 51°13.705 2°55.868 3.9 85 19.1 100880 76
2005-07-18 08:35:59 51°13.705 2°55.868 4 54 19.1 100880 76
2005-07-18 08:36:04 51°13.705 2°55.868 2.9 58 19.1 100880 76
2005-07-18 08:36:09 51°13.705 2°55.868 3.7 86 19.1 100880 76
2005-07-18 08:36:14 51°13.705 2°55.868 3.3 85 19.1 100880 76
2005-07-18 08:36:19 51°13.706 2°55.869 3.4 76 19.1 100880 76
2005-07-18 08:36:24 51°13.705 2°55.868 3.2 74 19.1 100880 75
2005-07-18 08:36:29 51°13.705 2°55.869 3.6 83 19.1 100880 75
2005-07-18 08:36:33 51°13.705 2°55.868 4.4 81 19.1 100880 75
2005-07-18 08:36:39 51°13.705 2°55.868 5.1 100 19.1 100880 75
2005-07-18 08:36:44 51°13.705 2°55.868 4.7 86 19.1 100880 75
2005-07-18 08:36:49 51°13.705 2°55.868 4.4 101 19.1 100880 75
2005-07-18 08:36:54 51°13.705 2°55.868 4.1 80 19.1 100880 75
2005-07-18 08:36:59 51°13.705 2°55.869 3.5 56 19.1 100880 75
2005-07-18 08:37:04 51°13.705 2°55.869 3.4 54 19.1 100870 75
2005-07-18 08:37:09 51°13.705 2°55.869 2.8 50 19.1 100870 75
2005-07-18 08:37:13 51°13.705 2°55.869 3.1 31 19.1 100880 75
2005-07-18 08:37:19 51°13.705 2°55.869 2.5 50 19.1 100880 75
2005-07-18 08:37:24 51°13.705 2°55.869 1.5 95 19.1 100870 75
2005-07-18 08:37:29 51°13.705 2°55.869 2.9 85 19.1 100870 75
2005-07-18 08:37:34 51°13.705 2°55.869 2.2 75 19.1 100870 75
2005-07-18 08:37:39 51°13.705 2°55.869 2.4 47 19.1 100870 75
2005-07-18 08:37:44 51°13.705 2°55.869 1.9 57 19.2 100870 75
2005-07-18 08:37:49 51°13.706 2°55.869 3.1 56 19.2 100870 75
2005-07-18 08:37:54 51°13.706 2°55.869 3.5 87 19.2 100880 75
2005-07-18 08:37:59 51°13.706 2°55.869 3.7 91 19.2 100880 75
2005-07-18 08:38:04 51°13.706 2°55.869 4.1 71 19.2 100880 76
2005-07-18 08:38:09 51°13.706 2°55.869 2.2 74 19.2 100880 76
2005-07-18 08:38:13 51°13.706 2°55.869 2.3 68 19.2 100880 76
2005-07-18 08:38:19 51°13.706 2°55.87 1.9 108 19.2 100880 76
2005-07-18 08:38:24 51°13.706 2°55.869 3.1 93 19.2 100880 75
2005-07-18 08:38:29 51°13.706 2°55.869 3 49 19.2 100880 75
2005-07-18 08:38:33 51°13.706 2°55.869 2.7 56 19.2 100870 75
2005-07-18 08:38:39 51°13.706 2°55.869 2.4 44 19.2 100870 75
2005-07-18 08:38:44 51°13.706 2°55.869 4.1 70 19.2 100870 75
2005-07-18 08:38:49 51°13.706 2°55.869 3.7 78 19.2 100870 75
2005-07-18 08:38:54 51°13.706 2°55.869 3.5 87 19.2 100880 75
2005-07-18 08:38:59 51°13.706 2°55.869 3.2 88 19.2 100880 75
2005-07-18 08:39:04 51°13.706 2°55.869 3.6 81 19.2 100880 76
2005-07-18 08:39:09 51°13.706 2°55.869 3.1 76 19.2 100880 76
2005-07-18 08:39:14 51°13.706 2°55.869 2.8 72 19.2 100880 75
2005-07-18 08:39:19 51°13.706 2°55.869 2.6 73 19.2 100880 75
2005-07-18 08:39:24 51°13.706 2°55.869 3 75 19.2 100870 74
2005-07-18 08:39:29 51°13.706 2°55.869 2.4 59 19.2 100870 74
2005-07-18 08:39:33 51°13.706 2°55.869 2.2 72 19.2 100870 74
2005-07-18 08:39:39 51°13.706 2°55.869 2.5 28 19.2 100870 74
2005-07-18 08:39:44 51°13.706 2°55.869 2.4 55 19.2 100880 74
2005-07-18 08:39:49 51°13.707 2°55.87 2.3 41 19.2 100880 74
2005-07-18 08:39:54 51°13.707 2°55.87 2.3 50 19.2 100870 75
2005-07-18 08:39:59 51°13.707 2°55.87 2.5 45 19.2 100870 75
2005-07-18 08:40:04 51°13.707 2°55.87 1.9 66 19.2 100870 75
2005-07-18 08:40:09 51°13.707 2°55.87 3 41 19.2 100870 75
2005-07-18 08:40:13 51°13.707 2°55.87 2.9 80 19.2 100870 75
2005-07-18 08:40:19 51°13.707 2°55.869 2.1 94 19.2 100870 75
2005-07-18 08:40:24 51°13.706 2°55.869 1.7 100 19.3 100870 76
2005-07-18 08:40:29 51°13.706 2°55.869 1.3 69 19.3 100870 76
2005-07-18 08:40:33 51°13.706 2°55.869 1.3 113 19.2 100870 75
2005-07-18 08:40:39 51°13.706 2°55.869 1.5 68 19.2 100870 75
2005-07-18 08:40:44 51°13.706 2°55.869 1.5 74 19.3 100870 76
2005-07-18 08:40:49 51°13.706 2°55.869 2.3 62 19.3 100870 76
2005-07-18 08:40:54 51°13.706 2°55.87 2.6 72 19.3 100870 75
2005-07-18 08:40:59 51°13.706 2°55.87 1.9 79 19.3 100870 75
2005-07-18 08:41:04 51°13.706 2°55.87 2.3 71 19.3 100870 75
2005-07-18 08:41:09 51°13.706 2°55.871 2.1 63 19.3 100870 75
2005-07-18 08:41:14 51°13.706 2°55.871 1.4 79 19.3 100870 76
2005-07-18 08:41:19 51°13.706 2°55.871 1.2 73 19.3 100870 76
2005-07-18 08:41:24 51°13.706 2°55.871 1.6 52 19.3 100870 76
2005-07-18 08:41:29 51°13.706 2°55.871 1.6 29 19.3 100870 76
2005-07-18 08:41:34 51°13.706 2°55.871 2.1 44 19.3 100870 76
2005-07-18 08:41:39 51°13.706 2°55.871 1.9 38 19.3 100870 76
2005-07-18 08:41:44 51°13.706 2°55.871 2 58 19.3 100870 76
2005-07-18 08:41:49 51°13.706 2°55.871 2.3 83 19.3 100870 76
2005-07-18 08:41:53 51°13.706 2°55.871 2.2 62 19.3 100870 76
2005-07-18 08:41:59 51°13.706 2°55.871 3 76 19.3 100870 76
2005-07-18 08:42:04 51°13.706 2°55.871 4 72 19.3 100870 76
2005-07-18 08:42:09 51°13.706 2°55.871 3.6 76 19.3 100870 76
2005-07-18 08:42:14 51°13.706 2°55.871 3.9 84 19.3 100870 75
2005-07-18 08:42:19 51°13.706 2°55.871 3.1 78 19.3 100870 75
2005-07-18 08:42:24 51°13.706 2°55.871 3.4 83 19.3 100870 75
2005-07-18 08:42:29 51°13.706 2°55.871 3.3 66 19.3 100870 75
2005-07-18 08:42:33 51°13.706 2°55.871 3.2 65 19.3 100870 75
2005-07-18 08:42:39 51°13.706 2°55.871 2.9 73 19.3 100870 75
2005-07-18 08:42:44 51°13.706 2°55.871 2.5 71 19.3 100870 75
2005-07-18 08:42:49 51°13.706 2°55.87 2.5 72 19.3 100870 75
2005-07-18 08:42:53 51°13.706 2°55.87 3.1 74 19.3 100870 75
2005-07-18 08:42:59 51°13.706 2°55.87 3.8 70 19.3 100870 75
2005-07-18 08:43:04 51°13.705 2°55.87 4 70 19.3 100870 75
2005-07-18 08:43:09 51°13.705 2°55.87 2.8 63 19.3 100870 75
2005-07-18 08:43:14 51°13.706 2°55.87 2.6 56 19.3 100870 75
2005-07-18 08:43:19 51°13.706 2°55.87 2.1 66 19.3 100870 75
2005-07-18 08:43:24 51°13.707 2°55.87 2.6 82 19.3 100870 75
2005-07-18 08:43:29 51°13.707 2°55.87 3.2 68 19.3 100870 75
2005-07-18 08:43:33 51°13.708 2°55.87 3.3 72 19.3 100870 75
2005-07-18 08:43:39 51°13.708 2°55.87 3.4 67 19.3 100870 75
2005-07-18 08:43:44 51°13.708 2°55.87 4.2 58 19.3 100870 75
2005-07-18 08:43:49 51°13.707 2°55.869 3.7 62 19.3 100870 75
2005-07-18 08:43:54 51°13.707 2°55.869 3.4 72 19.2 100870 75
2005-07-18 08:43:59 51°13.707 2°55.869 3.6 88 19.2 100870 75
2005-07-18 08:44:04 51°13.707 2°55.869 4.1 80 19.2 100870 75
2005-07-18 08:44:09 51°13.707 2°55.869 3.5 93 19.2 100870 75
2005-07-18 08:44:14 51°13.707 2°55.869 2.7 90 19.2 100870 75
2005-07-18 08:44:19 51°13.707 2°55.869 2.2 74 19.2 100870 75
2005-07-18 08:44:24 51°13.707 2°55.869 1.9 69 19.2 100870 75
2005-07-18 08:44:29 51°13.707 2°55.869 1.8 71 19.2 100870 75
2005-07-18 08:44:34 51°13.707 2°55.869 1.8 47 19.2 100870 75
2005-07-18 08:44:39 51°13.707 2°55.869 1.3 55 19.2 100870 75
2005-07-18 08:44:44 51°13.707 2°55.869 1.9 59 19.2 100870 75
2005-07-18 08:44:49 51°13.707 2°55.869 2.5 94 19.2 100870 75
2005-07-18 08:44:53 51°13.707 2°55.869 2.4 95 19.2 100870 75
2005-07-18 08:44:59 51°13.707 2°55.869 2.3 91 19.2 100870 75
2005-07-18 08:45:04 51°13.707 2°55.869 2.1 81 19.3 100870 76
2005-07-18 08:45:09 51°13.707 2°55.869 1.8 75 19.3 100870 76
2005-07-18 08:45:13 51°13.707 2°55.869 1.9 45 19.3 100870 76
2005-07-18 08:45:19 51°13.707 2°55.869 2.5 88 19.3 100870 76
2005-07-18 08:45:24 51°13.706 2°55.869 2.8 68 19.2 100870 75
2005-07-18 08:45:29 51°13.706 2°55.869 1.9 74 19.2 100870 75
2005-07-18 08:45:33 51°13.706 2°55.869 3 94 19.3 100870 76
2005-07-18 08:45:39 51°13.706 2°55.869 3.4 70 19.3 100870 76
2005-07-18 08:45:44 51°13.706 2°55.869 2.7 66 19.3 100870 76
2005-07-18 08:45:49 51°13.706 2°55.869 3.7 52 19.3 100870 76
2005-07-18 08:45:54 51°13.706 2°55.869 3.7 70 19.3 100870 76
2005-07-18 08:45:59 51°13.707 2°55.869 4.1 76 19.3 100870 76
2005-07-18 08:46:04 51°13.707 2°55.869 3.9 68 19.3 100870 76
2005-07-18 08:46:09 51°13.707 2°55.869 3.3 77 19.3 100870 76
2005-07-18 08:46:14 51°13.708 2°55.868 4.1 81 19.3 100870 76
2005-07-18 08:46:19 51°13.708 2°55.868 4 68 19.3 100870 76
2005-07-18 08:46:24 51°13.708 2°55.868 2.8 75 19.3 100870 76
2005-07-18 08:46:29 51°13.708 2°55.869 2.8 66 19.3 100870 76
2005-07-18 08:46:34 51°13.707 2°55.868 2.4 65 19.3 100870 75
2005-07-18 08:46:39 51°13.707 2°55.868 1.9 70 19.3 100870 75
2005-07-18 08:46:44 51°13.707 2°55.868 2.2 69 19.3 100870 75
2005-07-18 08:46:49 51°13.707 2°55.868 3.3 68 19.3 100870 75
2005-07-18 08:46:53 51°13.707 2°55.869 3.3 72 19.3 100870 75
2005-07-18 08:46:59 51°13.709 2°55.869 2.6 65 19.3 100870 75
2005-07-18 08:47:04 51°13.709 2°55.869 2.8 66 19.3 100870 75
2005-07-18 08:47:09 51°13.708 2°55.869 2.6 63 19.3 100870 75
2005-07-18 08:47:13 51°13.707 2°55.869 2.3 85 19.3 100870 75
2005-07-18 08:47:19 51°13.707 2°55.869 2.6 62 19.3 100870 75
2005-07-18 08:47:24 51°13.708 2°55.869 2.3 64 19.3 100870 75
2005-07-18 08:47:29 51°13.708 2°55.869 2.6 79 19.3 100870 75
2005-07-18 08:47:34 51°13.709 2°55.869 2.4 57 19.3 100870 75
2005-07-18 08:47:39 51°13.709 2°55.869 2.7 51 19.3 100870 75
2005-07-18 08:47:44 51°13.709 2°55.869 2.7 70 19.3 100870 76
2005-07-18 08:47:49 51°13.709 2°55.87 2.2 85 19.3 100870 76
2005-07-18 08:47:53 51°13.71 2°55.87 2.5 87 19.3 100870 76
2005-07-18 08:47:59 51°13.71 2°55.87 2.2 64 19.3 100870 76
2005-07-18 08:48:04 51°13.71 2°55.87 2.6 59 19.3 100860 76
2005-07-18 08:48:09 51°13.711 2°55.87 3.1 86 19.3 100860 76
2005-07-18 08:48:14 51°13.711 2°55.87 3.3 84 19.4 100860 76
2005-07-18 08:48:19 51°13.71 2°55.87 2.4 65 19.4 100860 76
2005-07-18 08:48:24 51°13.71 2°55.87 2.2 65 19.4 100860 76
2005-07-18 08:48:29 51°13.71 2°55.87 2.1 101 19.4 100860 76
2005-07-18 08:48:34 51°13.708 2°55.869 2.2 78 19.4 100860 76
2005-07-18 08:48:39 51°13.707 2°55.869 2.9 86 19.4 100860 76
2005-07-18 08:48:44 51°13.707 2°55.869 3.2 69 19.4 100860 76
2005-07-18 08:48:49 51°13.707 2°55.869 5.1 81 19.4 100860 76
2005-07-18 08:48:53 51°13.707 2°55.869 4.5 77 19.4 100860 76
2005-07-18 08:48:59 51°13.707 2°55.869 3.4 80 19.4 100860 76
2005-07-18 08:49:04 51°13.707 2°55.869 3.9 84 19.4 100860 76
2005-07-18 08:49:09 51°13.707 2°55.869 3.4 83 19.4 100860 76
2005-07-18 08:49:13 51°13.707 2°55.869 3.8 77 19.4 100860 75
2005-07-18 08:49:19 51°13.707 2°55.869 3.2 68 19.4 100860 75
2005-07-18 08:49:24 51°13.707 2°55.869 2.5 80 19.4 100860 75
2005-07-18 08:49:29 51°13.707 2°55.869 3.1 74 19.4 100860 75
2005-07-18 08:49:33 51°13.707 2°55.869 2.4 68 19.4 100860 75
2005-07-18 08:49:39 51°13.707 2°55.869 2.5 25 19.4 100860 75
2005-07-18 08:49:44 51°13.707 2°55.869 3.4 45 19.4 100860 75
2005-07-18 08:49:49 51°13.707 2°55.869 3.7 44 19.4 100860 75
2005-07-18 08:49:53 51°13.707 2°55.869 2.9 41 19.4 100860 75
2005-07-18 08:49:59 51°13.707 2°55.869 2.8 74 19.4 100860 75
2005-07-18 08:50:04 51°13.707 2°55.869 2.8 53 19.4 100860 76
2005-07-18 08:50:09 51°13.707 2°55.869 2.8 48 19.4 100860 76
2005-07-18 08:50:14 51°13.706 2°55.869 2.1 42 19.4 100860 76
2005-07-18 08:50:19 51°13.707 2°55.87 2 48 19.4 100860 76
2005-07-18 08:50:24 51°13.707 2°55.87 2.6 49 19.4 100860 76
2005-07-18 08:50:29 51°13.708 2°55.87 2 71 19.4 100860 76
2005-07-18 08:50:34 51°13.708 2°55.87 2.7 51 19.4 100860 76
2005-07-18 08:50:39 51°13.708 2°55.87 2.7 51 19.4 100860 76
2005-07-18 08:50:44 51°13.709 2°55.87 3.5 23 19.4 100860 76
2005-07-18 08:50:49 51°13.709 2°55.87 4.7 42 19.4 100860 76
2005-07-18 08:50:53 51°13.709 2°55.87 4.1 50 19.4 100860 76
2005-07-18 08:51:01 51°13.709 2°55.87 4.1 50 19.4 100860 76
2005-07-18 08:51:05 51°13.709 2°55.87 4.1 50 19.4 100860 76
2005-07-18 08:51:10 51°13.709 2°55.87 4.1 50 19.4 100860 76
2005-07-18 08:51:15 51°13.709 2°55.87 4.1 50 19.4 100860 76
2005-07-18 08:51:20 51°13.709 2°55.87 4.1 50 19.4 100860 76
2005-07-18 08:51:24 51°13.708 2°55.87 4.1 50 -999 -999 -999
2005-07-18 08:51:29 51°13.708 2°55.87 -999 -999 -999 -999 -999
2005-07-18 08:51:33 51°13.708 2°55.869 -999 -999 -999 -999 -999
2005-07-18 08:51:39 51°13.707 2°55.869 2.2 61 -999 -999 -999
2005-07-18 08:51:44 51°13.707 2°55.869 3.8 51 -999 -999 -999
2005-07-18 08:51:49 51°13.706 2°55.869 3.3 48 -999 -999 -999
2005-07-18 08:51:53 51°13.706 2°55.869 3.1 64 -999 -999 -999
2005-07-18 08:51:59 51°13.706 2°55.869 3.4 60 -999 -999 -999
2005-07-18 08:52:04 51°13.706 2°55.869 3.3 66 19.4 -999 73
2005-07-18 08:52:09 51°13.706 2°55.869 3.5 56 19.4 -999 73
2005-07-18 08:52:13 51°13.706 2°55.869 3.3 52 19.4 -999 75
2005-07-18 08:52:19 51°13.706 2°55.869 2.2 73 19.4 -999 75
2005-07-18 08:52:24 51°13.706 2°55.869 2.5 65 19.4 100860 76
2005-07-18 08:52:29 51°13.706 2°55.869 2.5 74 19.4 100860 76
2005-07-18 08:52:33 51°13.706 2°55.869 3 55 19.4 100860 76
2005-07-18 08:52:39 51°13.706 2°55.869 2.9 53 19.4 100860 76
2005-07-18 08:52:44 51°13.706 2°55.869 3 53 19.5 100860 76
2005-07-18 08:52:49 51°13.706 2°55.869 3.3 47 19.5 100860 76
2005-07-18 08:52:54 51°13.706 2°55.869 2.8 53 19.5 100860 75
2005-07-18 08:52:59 51°13.706 2°55.869 2.8 50 19.5 100860 75
2005-07-18 08:53:04 51°13.706 2°55.869 3.3 99 19.5 100860 75
2005-07-18 08:53:08 51°13.706 2°55.87 2.7 20 19.5 100860 75
2005-07-18 08:53:13 51°13.706 2°55.87 2.5 38 19.5 100860 75
2005-07-18 08:53:17 51°13.706 2°55.87 2.8 43 19.5 100860 75
2005-07-18 08:53:22 51°13.706 2°55.87 2.3 41 19.5 100850 75
2005-07-18 08:53:27 51°13.706 2°55.87 3.1 41 19.5 100850 75
2005-07-18 08:53:31 51°13.706 2°55.87 3.5 42 19.5 100860 75
2005-07-18 08:53:37 51°13.707 2°55.871 2.9 34 19.5 100860 75
2005-07-18 08:53:42 51°13.707 2°55.871 4 52 19.5 100850 75
2005-07-18 08:53:47 51°13.707 2°55.871 3.4 53 19.5 100850 75
2005-07-18 08:53:51 51°13.707 2°55.871 3.2 43 19.5 100850 76
2005-07-18 08:53:57 51°13.706 2°55.87 2.5 37 19.5 100850 76
2005-07-18 08:54:02 51°13.706 2°55.87 2.6 47 19.5 100850 75
2005-07-18 08:54:07 51°13.706 2°55.87 3.7 39 19.5 100850 75
2005-07-18 08:54:11 51°13.706 2°55.87 3.8 53 19.5 100850 75
2005-07-18 08:54:18 51°13.706 2°55.87 4 43 19.5 100850 75
2005-07-18 08:54:21 51°13.706 2°55.87 3.4 50 19.5 100850 75
2005-07-18 08:54:27 51°13.706 2°55.871 3.4 47 19.5 100850 75
2005-07-18 08:54:32 51°13.707 2°55.871 3 48 19.5 100850 75
2005-07-18 08:54:37 51°13.707 2°55.871 2.2 81 19.5 100850 75
2005-07-18 08:54:43 51°13.707 2°55.871 2.6 62 19.5 100860 75
2005-07-18 08:54:47 51°13.707 2°55.871 2.4 56 19.5 100860 75
2005-07-18 08:54:52 51°13.707 2°55.87 3.9 62 19.5 100860 75
2005-07-18 08:54:57 51°13.707 2°55.871 3.7 69 19.5 100860 75
2005-07-18 08:55:03 51°13.707 2°55.871 4.9 72 19.5 100860 75
2005-07-18 08:55:07 51°13.707 2°55.871 4 69 19.5 100860 75
2005-07-18 08:55:11 51°13.707 2°55.871 3.4 73 19.5 100860 75
2005-07-18 08:55:16 51°13.708 2°55.871 3.9 77 19.5 100860 75
2005-07-18 08:55:21 51°13.708 2°55.871 3.5 74 19.5 100860 75
2005-07-18 08:55:27 51°13.708 2°55.871 2.6 77 19.5 100860 75
2005-07-18 08:55:32 51°13.708 2°55.871 2.6 66 19.5 100860 75
2005-07-18 08:55:37 51°13.708 2°55.871 2.7 63 19.5 100860 75
2005-07-18 08:55:42 51°13.708 2°55.87 3 76 19.5 100850 75
2005-07-18 08:55:47 51°13.708 2°55.87 3.4 65 19.5 100850 75
2005-07-18 08:55:52 51°13.708 2°55.87 4.1 66 19.5 100850 75
2005-07-18 08:55:57 51°13.708 2°55.87 2.1 67 19.5 100850 75
2005-07-18 08:56:03 51°13.708 2°55.87 2.6 61 19.5 100860 76
2005-07-18 08:56:07 51°13.708 2°55.87 2.9 54 19.5 100860 76
2005-07-18 08:56:11 51°13.708 2°55.87 3.1 56 19.5 100850 75
2005-07-18 08:56:17 51°13.708 2°55.87 3.9 60 19.5 100850 75
2005-07-18 08:56:22 51°13.708 2°55.87 3.9 45 19.5 100860 75
2005-07-18 08:56:27 51°13.708 2°55.87 3 76 19.5 100860 75
2005-07-18 08:56:32 51°13.709 2°55.87 3 62 19.5 100850 75
2005-07-18 08:56:37 51°13.709 2°55.87 2.9 71 19.5 100850 75
2005-07-18 08:56:42 51°13.709 2°55.87 3.5 51 19.5 100850 75
2005-07-18 08:56:47 51°13.708 2°55.869 2.8 77 19.5 100850 75
2005-07-18 08:56:52 51°13.708 2°55.869 2.3 103 19.5 100850 75
2005-07-18 08:56:57 51°13.708 2°55.869 2.8 57 19.5 100850 75
2005-07-18 08:57:02 51°13.708 2°55.869 3.2 52 19.5 100850 75
2005-07-18 08:57:07 51°13.709 2°55.87 3.9 66 19.5 100850 75
2005-07-18 08:57:12 51°13.708 2°55.869 3.4 50 19.5 100850 75
2005-07-18 08:57:17 51°13.708 2°55.869 3.6 39 19.5 100850 75
2005-07-18 08:57:22 51°13.708 2°55.869 3.2 42 19.6 100850 75
2005-07-18 08:57:28 51°13.708 2°55.869 3.1 54 19.6 100850 75
2005-07-18 08:57:31 51°13.708 2°55.869 3 45 19.5 100850 75
2005-07-18 08:57:37 51°13.708 2°55.869 3.6 44 19.5 100850 75
2005-07-18 08:57:42 51°13.708 2°55.869 2.9 59 19.6 100850 75
2005-07-18 08:57:48 51°13.708 2°55.869 1.8 62 19.6 100850 75
2005-07-18 08:57:52 51°13.707 2°55.869 2.8 69 19.5 100850 75
2005-07-18 08:57:57 51°13.707 2°55.869 3.1 68 19.5 100850 75
2005-07-18 08:58:02 51°13.707 2°55.869 3.1 93 19.5 100850 75
2005-07-18 08:58:07 51°13.707 2°55.869 2.5 81 19.5 100850 75
2005-07-18 08:58:13 51°13.707 2°55.869 4.3 86 19.6 100850 75
2005-07-18 08:58:17 51°13.707 2°55.869 3.8 77 19.6 100850 75
2005-07-18 08:58:22 51°13.707 2°55.869 3.2 80 19.6 100850 75
2005-07-18 08:58:27 51°13.708 2°55.869 2.3 86 19.6 100850 75
2005-07-18 08:58:31 51°13.708 2°55.869 3.2 82 19.6 100850 76
2005-07-18 08:58:38 51°13.708 2°55.869 3.1 80 19.6 100850 76
2005-07-18 08:58:42 51°13.708 2°55.869 2.7 83 19.6 100850 75
2005-07-18 08:58:47 51°13.708 2°55.869 2.4 85 19.6 100850 75
2005-07-18 08:58:52 51°13.708 2°55.869 3.7 64 19.6 100850 75
2005-07-18 08:58:57 51°13.708 2°55.869 4.1 71 19.6 100850 75
2005-07-18 08:59:02 51°13.708 2°55.869 3.5 68 19.5 100850 75
2005-07-18 08:59:07 51°13.708 2°55.869 3.1 70 19.5 100850 75
2005-07-18 08:59:12 51°13.708 2°55.869 3.1 63 19.5 100850 75
2005-07-18 08:59:17 51°13.708 2°55.869 3.5 51 19.5 100850 75
2005-07-18 08:59:22 51°13.708 2°55.869 2.8 54 19.5 100850 75
2005-07-18 08:59:27 51°13.708 2°55.869 2.4 67 19.5 100850 75
2005-07-18 08:59:32 51°13.708 2°55.869 2.1 76 19.5 100850 75
2005-07-18 08:59:37 51°13.709 2°55.869 4.1 97 19.5 100850 75
2005-07-18 08:59:43 51°13.709 2°55.869 4.2 77 19.5 100850 75
2005-07-18 08:59:48 51°13.71 2°55.869 3.3 79 19.5 100850 75
2005-07-18 08:59:52 51°13.71 2°55.869 3.9 80 19.6 100850 76
2005-07-18 08:59:57 51°13.71 2°55.869 3.9 69 19.6 100850 76
2005-07-18 09:00:02 51°13.71 2°55.869 4.2 72 19.6 100850 76
2005-07-18 09:00:07 51°13.71 2°55.869 4.1 74 19.6 100850 76
2005-07-18 09:00:12 51°13.71 2°55.869 3.4 67 19.5 100850 75
2005-07-18 09:00:17 51°13.709 2°55.869 2.7 77 19.5 100850 75
2005-07-18 09:00:22 51°13.709 2°55.869 2.4 89 19.6 100850 75
2005-07-18 09:00:27 51°13.709 2°55.869 2.6 86 19.6 100850 75
2005-07-18 09:00:32 51°13.709 2°55.869 2.8 79 19.5 100850 75
2005-07-18 09:00:37 51°13.709 2°55.869 3.1 71 19.5 100850 75
2005-07-18 09:00:43 51°13.709 2°55.869 2.7 74 19.5 100850 75
2005-07-18 09:00:47 51°13.709 2°55.869 2.7 110 19.5 100850 75
2005-07-18 09:00:53 51°13.709 2°55.869 2.7 103 19.5 100850 75
2005-07-18 09:00:58 51°13.709 2°55.869 2 125 19.5 100850 75
2005-07-18 09:01:02 51°13.709 2°55.869 1.5 99 19.6 100850 75
2005-07-18 09:01:07 51°13.709 2°55.869 2.2 62 19.6 100850 75
2005-07-18 09:01:12 51°13.709 2°55.869 2.2 35 19.6 100850 75
2005-07-18 09:01:18 51°13.709 2°55.869 2.1 25 19.6 100850 75
2005-07-18 09:01:22 51°13.709 2°55.869 1.8 10 19.5 100850 75
2005-07-18 09:01:27 51°13.709 2°55.869 2.6 14 19.5 100850 75
2005-07-18 09:01:32 51°13.708 2°55.869 2.1 25 19.6 100850 75
2005-07-18 09:01:37 51°13.708 2°55.869 1.6 90 19.6 100850 75
2005-07-18 09:01:43 51°13.708 2°55.869 1.3 62 19.6 100850 76
2005-07-18 09:01:47 51°13.708 2°55.869 2.6 63 19.6 100850 76
2005-07-18 09:01:52 51°13.708 2°55.869 2.5 88 19.6 100850 76
2005-07-18 09:01:56 51°13.708 2°55.869 2.5 91 19.6 100850 76
2005-07-18 09:02:03 51°13.708 2°55.869 2.4 85 19.6 100850 76
2005-07-18 09:02:07 51°13.708 2°55.869 1.9 84 19.6 100850 76
2005-07-18 09:02:12 51°13.708 2°55.869 2.3 76 19.6 100850 76
2005-07-18 09:02:17 51°13.708 2°55.869 1.8 77 19.6 100850 76
2005-07-18 09:02:23 51°13.708 2°55.869 2 64 19.6 100850 76
2005-07-18 09:02:27 51°13.708 2°55.869 2.4 77 19.6 100850 76
2005-07-18 09:02:32 51°13.708 2°55.869 2.3 98 19.6 100850 76
2005-07-18 09:02:37 51°13.708 2°55.869 3 92 19.6 100850 76
2005-07-18 09:02:42 51°13.708 2°55.869 3.9 83 19.7 100850 76
2005-07-18 09:02:47 51°13.708 2°55.869 3.5 90 19.7 100850 76
2005-07-18 09:02:52 51°13.708 2°55.869 3.4 68 19.6 100850 76
2005-07-18 09:02:57 51°13.708 2°55.869 2.4 74 19.6 100850 76
2005-07-18 09:03:03 51°13.708 2°55.869 2.2 78 19.7 100850 76
2005-07-18 09:03:07 51°13.708 2°55.869 4 91 19.7 100850 76
2005-07-18 09:03:12 51°13.707 2°55.869 3.4 85 19.7 100850 76
2005-07-18 09:03:17 51°13.707 2°55.869 3 84 19.7 100850 76
2005-07-18 09:03:22 51°13.707 2°55.869 2.8 87 19.7 100840 76
2005-07-18 09:03:27 51°13.707 2°55.869 2.6 89 19.7 100840 76
2005-07-18 09:03:31 51°13.707 2°55.869 3 88 19.7 100850 76
2005-07-18 09:03:37 51°13.707 2°55.869 2.5 81 19.7 100850 76
2005-07-18 09:03:43 51°13.707 2°55.869 2.5 73 19.7 100850 76
2005-07-18 09:03:47 51°13.707 2°55.869 2.4 98 19.7 100850 76
2005-07-18 09:03:52 51°13.707 2°55.869 2.7 82 19.7 100850 76
2005-07-18 09:03:57 51°13.707 2°55.869 2.5 70 19.7 100850 76
2005-07-18 09:04:03 51°13.707 2°55.869 3.5 59 19.7 100850 75
2005-07-18 09:04:07 51°13.707 2°55.869 4.1 62 19.7 100850 75
2005-07-18 09:04:11 51°13.707 2°55.869 3.3 47 19.7 100850 75
2005-07-18 09:04:17 51°13.707 2°55.869 3.2 55 19.7 100850 75
2005-07-18 09:04:22 51°13.707 2°55.869 2.9 64 19.7 100850 75
2005-07-18 09:04:27 51°13.707 2°55.869 3.1 66 19.7 100850 75
2005-07-18 09:04:32 51°13.707 2°55.869 2.9 57 19.7 100840 75
2005-07-18 09:04:37 51°13.707 2°55.869 2.6 72 19.7 100840 75
2005-07-18 09:04:43 51°13.706 2°55.869 2.3 63 19.7 100850 75
2005-07-18 09:04:47 51°13.706 2°55.869 1.9 55 19.7 100850 75
2005-07-18 09:04:53 51°13.706 2°55.868 1.7 59 19.7 100850 75
2005-07-18 09:04:57 51°13.706 2°55.868 2.1 81 19.7 100850 75
2005-07-18 09:05:03 51°13.706 2°55.868 2.4 85 19.7 100840 75
2005-07-18 09:05:07 51°13.706 2°55.868 2.2 97 19.7 100840 75
2005-07-18 09:05:11 51°13.706 2°55.868 2.1 91 19.7 100850 75
2005-07-18 09:05:16 51°13.706 2°55.868 1.7 72 19.7 100850 75
2005-07-18 09:05:21 51°13.706 2°55.868 1.9 104 19.7 100850 75
2005-07-18 09:05:27 51°13.705 2°55.869 2.7 89 19.7 100850 75
2005-07-18 09:05:32 51°13.705 2°55.869 2.9 77 19.7 100840 75
2005-07-18 09:05:37 51°13.705 2°55.869 2.4 92 19.7 100840 75
2005-07-18 09:05:43 51°13.705 2°55.869 2.8 98 19.7 100840 75
2005-07-18 09:05:47 51°13.705 2°55.869 2.4 105 19.7 100840 75
2005-07-18 09:05:52 51°13.706 2°55.869 3 98 19.7 100840 75
2005-07-18 09:05:56 51°13.705 2°55.869 3.4 102 19.7 100840 75
2005-07-18 09:06:01 51°13.705 2°55.869 4.3 102 19.7 100840 75
2005-07-18 09:06:07 51°13.705 2°55.869 5 97 19.7 100840 75
2005-07-18 09:06:12 51°13.706 2°55.868 2.6 99 19.7 100840 75
2005-07-18 09:06:17 51°13.706 2°55.867 3.9 118 19.7 100840 75
2005-07-18 09:06:23 51°13.706 2°55.866 4.1 106 19.7 100840 75
2005-07-18 09:06:27 51°13.707 2°55.865 2.6 99 19.7 100840 75
2005-07-18 09:06:32 51°13.707 2°55.865 3.2 90 19.7 100840 75
2005-07-18 09:06:37 51°13.707 2°55.865 3.3 71 19.7 100840 75
2005-07-18 09:06:43 51°13.707 2°55.865 3.2 61 19.7 100840 75
2005-07-18 09:06:47 51°13.707 2°55.866 2.9 60 19.7 100840 75
2005-07-18 09:06:53 51°13.706 2°55.867 3.2 61 19.7 100840 75
2005-07-18 09:06:58 51°13.706 2°55.869 2.9 64 19.7 100840 75
2005-07-18 09:07:02 51°13.705 2°55.87 4.3 45 19.7 100840 75
2005-07-18 09:07:07 51°13.704 2°55.873 3.8 61 19.7 100840 75
2005-07-18 09:07:12 51°13.703 2°55.875 3 62 19.7 100840 75
2005-07-18 09:07:18 51°13.701 2°55.878 3.3 54 19.7 100840 75
2005-07-18 09:07:22 51°13.699 2°55.88 2.6 78 19.7 100840 75
2005-07-18 09:07:27 51°13.698 2°55.883 2.7 14 19.7 100840 75
2005-07-18 09:07:32 51°13.696 2°55.887 2.7 34 19.7 100840 75
2005-07-18 09:07:37 51°13.694 2°55.891 2.5 44 19.7 100840 75
2005-07-18 09:07:43 51°13.691 2°55.896 3.1 31 19.7 100840 76
2005-07-18 09:07:47 51°13.689 2°55.9 2.8 46 19.7 100840 76
2005-07-18 09:07:52 51°13.686 2°55.905 3.2 20 19.7 100840 76
2005-07-18 09:07:58 51°13.683 2°55.911 4.3 38 19.7 100840 76
2005-07-18 09:08:03 51°13.68 2°55.916 4.3 65 19.7 100840 76
2005-07-18 09:08:07 51°13.677 2°55.921 5.4 48 19.7 100840 76
2005-07-18 09:08:11 51°13.674 2°55.925 3.9 27 19.7 100830 76
2005-07-18 09:08:17 51°13.67 2°55.932 5.2 27 19.7 100830 76
2005-07-18 09:08:22 51°13.667 2°55.938 4.3 29 19.7 100830 76
2005-07-18 09:08:27 51°13.663 2°55.943 4.6 42 19.7 100830 76
2005-07-18 09:08:32 51°13.66 2°55.948 5.2 44 19.7 100830 75
2005-07-18 09:08:37 51°13.656 2°55.954 4.8 31 19.7 100830 75
2005-07-18 09:08:42 51°13.652 2°55.959 4.5 35 19.7 100830 75
2005-07-18 09:08:48 51°13.648 2°55.965 4.9 13 19.7 100830 75
2005-07-18 09:08:52 51°13.644 2°55.97 4.6 33 19.7 100830 75
2005-07-18 09:08:57 51°13.641 2°55.974 4.4 25 19.7 100830 75
2005-07-18 09:09:02 51°13.636 2°55.979 5.4 28 19.7 100830 75
2005-07-18 09:09:07 51°13.632 2°55.984 4.7 42 19.7 100830 75
2005-07-18 09:09:11 51°13.629 2°55.988 4.3 54 19.7 100830 75
2005-07-18 09:09:17 51°13.624 2°55.994 4.1 44 19.7 100830 75
2005-07-18 09:09:22 51°13.62 2°55.998 4.2 34 19.7 100830 75
2005-07-18 09:09:27 51°13.616 2°56.003 4 44 19.7 100830 75
2005-07-18 09:09:33 51°13.612 2°56.007 4.5 57 19.6 100830 75
2005-07-18 09:09:37 51°13.609 2°56.011 4.4 28 19.6 100830 75
2005-07-18 09:09:42 51°13.604 2°56.016 4.3 31 19.7 100830 75
2005-07-18 09:09:47 51°13.601 2°56.021 5.1 30 19.7 100830 75
2005-07-18 09:09:52 51°13.597 2°56.025 4.7 41 19.6 100830 75
2005-07-18 09:09:57 51°13.594 2°56.03 5.5 24 19.6 100830 75
2005-07-18 09:10:02 51°13.59 2°56.035 4.7 39 19.6 100830 75
2005-07-18 09:10:08 51°13.587 2°56.041 5.2 47 19.6 100830 75
2005-07-18 09:10:12 51°13.584 2°56.045 5.4 55 19.6 100840 75
2005-07-18 09:10:17 51°13.581 2°56.05 6.3 54 19.6 100840 75
2005-07-18 09:10:22 51°13.578 2°56.055 5.7 60 19.6 100830 75
2005-07-18 09:10:27 51°13.575 2°56.061 5.3 71 19.6 100830 75
2005-07-18 09:10:32 51°13.573 2°56.067 4.7 56 19.6 100830 75
2005-07-18 09:10:37 51°13.57 2°56.072 4 77 19.6 100830 75
2005-07-18 09:10:43 51°13.567 2°56.079 5 87 19.6 100830 75
2005-07-18 09:10:47 51°13.565 2°56.084 3.1 82 19.6 100830 75
2005-07-18 09:10:53 51°13.563 2°56.091 3.2 68 19.6 100830 75
2005-07-18 09:10:57 51°13.56 2°56.097 4.1 41 19.6 100830 75
2005-07-18 09:11:03 51°13.558 2°56.103 5.4 49 19.6 100840 75
2005-07-18 09:11:07 51°13.556 2°56.108 5.7 69 19.6 100840 75
2005-07-18 09:11:12 51°13.554 2°56.114 5.3 73 19.6 100840 75
2005-07-18 09:11:17 51°13.552 2°56.119 5.1 70 19.6 100840 75
2005-07-18 09:11:21 51°13.551 2°56.124 3.9 88 19.6 100840 75
2005-07-18 09:11:27 51°13.549 2°56.133 3 91 19.6 100840 75
2005-07-18 09:11:33 51°13.548 2°56.14 4.4 80 19.6 100830 75
2005-07-18 09:11:37 51°13.548 2°56.147 4.1 95 19.6 100830 75
2005-07-18 09:11:42 51°13.547 2°56.154 3.5 86 19.6 100840 75
2005-07-18 09:11:47 51°13.547 2°56.161 2.8 90 19.6 100840 75
2005-07-18 09:11:53 51°13.548 2°56.168 1.8 74 19.6 100840 75
2005-07-18 09:11:57 51°13.548 2°56.173 2.3 114 19.6 100840 75
2005-07-18 09:12:03 51°13.549 2°56.177 1.5 127 19.6 100840 75
2005-07-18 09:12:07 51°13.549 2°56.179 2.4 146 19.6 100840 75
2005-07-18 09:12:12 51°13.549 2°56.18 2.6 157 19.6 100840 75
2005-07-18 09:12:18 51°13.549 2°56.181 3.4 158 19.6 100840 75
2005-07-18 09:12:22 51°13.549 2°56.18 3.3 171 19.6 100840 75
2005-07-18 09:12:27 51°13.549 2°56.179 1.9 161 19.6 100840 75
2005-07-18 09:12:31 51°13.548 2°56.178 2 162 19.6 100840 75
2005-07-18 09:12:37 51°13.548 2°56.178 2.8 144 19.6 100840 75
2005-07-18 09:12:43 51°13.549 2°56.18 2.5 139 19.6 100840 75
2005-07-18 09:12:48 51°13.551 2°56.182 1.8 127 19.6 100840 75
2005-07-18 09:12:53 51°13.552 2°56.184 2.1 131 19.6 100840 75
2005-07-18 09:12:58 51°13.553 2°56.186 4.5 168 19.6 100840 75
2005-07-18 09:13:02 51°13.553 2°56.187 4.4 158 19.6 100840 75
2005-07-18 09:13:07 51°13.553 2°56.186 4.2 154 19.6 100840 75
2005-07-18 09:13:12 51°13.552 2°56.186 3.8 152 19.6 100840 75
2005-07-18 09:13:18 51°13.55 2°56.184 3 173 19.6 100840 75
2005-07-18 09:13:23 51°13.548 2°56.183 3.7 168 19.7 100840 75
2005-07-18 09:13:27 51°13.548 2°56.182 3.7 163 19.7 100840 75
2005-07-18 09:13:33 51°13.548 2°56.182 3.1 209 19.7 100840 75
2005-07-18 09:13:38 51°13.549 2°56.183 2.1 194 19.7 100840 75
2005-07-18 09:13:43 51°13.55 2°56.184 2.9 228 19.7 100840 75
2005-07-18 09:13:48 51°13.551 2°56.184 3 194 19.7 100840 75
2005-07-18 09:13:53 51°13.551 2°56.184 2.7 220 19.7 100850 75
2005-07-18 09:13:58 51°13.549 2°56.184 2.9 204 19.7 100850 75
2005-07-18 09:14:03 51°13.547 2°56.185 3.9 210 19.7 100840 75
2005-07-18 09:14:08 51°13.544 2°56.185 4.3 221 19.7 100840 75
2005-07-18 09:14:13 51°13.542 2°56.186 4.7 212 19.7 100850 75
2005-07-18 09:14:18 51°13.541 2°56.186 3.6 215 19.7 100850 75
2005-07-18 09:14:23 51°13.54 2°56.187 3.3 228 19.7 100840 75
2005-07-18 09:14:28 51°13.54 2°56.186 2.7 243 19.7 100840 75
2005-07-18 09:14:33 51°13.54 2°56.187 2.6 230 19.8 100850 74
2005-07-18 09:14:38 51°13.542 2°56.186 2.2 254 19.8 100850 74
2005-07-18 09:14:43 51°13.544 2°56.185 2.5 266 19.8 100850 74
2005-07-18 09:14:48 51°13.546 2°56.184 2.2 234 19.8 100850 74
2005-07-18 09:14:53 51°13.548 2°56.182 1.7 255 19.8 100850 74
2005-07-18 09:14:58 51°13.551 2°56.178 3.1 261 19.8 100850 74
2005-07-18 09:15:03 51°13.554 2°56.174 3.3 308 19.8 100850 74
2005-07-18 09:15:07 51°13.557 2°56.168 2.2 305 19.8 100850 74
2005-07-18 09:15:12 51°13.56 2°56.16 3.8 308 19.8 100840 74
2005-07-18 09:15:18 51°13.563 2°56.148 4 339 19.8 100840 74
2005-07-18 09:15:21 51°13.566 2°56.139 4.6 338 19.8 100840 74
2005-07-18 09:15:27 51°13.57 2°56.124 4.7 40 19.8 100840 74
2005-07-18 09:15:32 51°13.573 2°56.112 3.7 330 19.8 100840 74
2005-07-18 09:15:37 51°13.577 2°56.1 3.3 307 19.8 100840 74
2005-07-18 09:15:41 51°13.581 2°56.088 4.6 44 19.8 100840 74
2005-07-18 09:15:47 51°13.586 2°56.071 4.3 326 19.8 100840 74
2005-07-18 09:15:52 51°13.591 2°56.056 4.7 316 19.8 100840 74
2005-07-18 09:15:57 51°13.596 2°56.043 5.6 302 19.8 100840 74
2005-07-18 09:16:03 51°13.602 2°56.024 6.3 330 19.8 100840 74
2005-07-18 09:16:07 51°13.607 2°56.01 5.9 319 19.8 100840 74
2005-07-18 09:16:12 51°13.613 2°55.996 6.5 302 19.8 100840 74
2005-07-18 09:16:17 51°13.619 2°55.979 5.1 288 19.8 100840 74
2005-07-18 09:16:23 51°13.626 2°55.962 4.3 313 19.8 100840 74
2005-07-18 09:16:27 51°13.632 2°55.947 3 341 19.8 100840 74
2005-07-18 09:16:31 51°13.638 2°55.935 4.9 334 19.8 100840 74
2005-07-18 09:16:37 51°13.645 2°55.917 4.2 328 19.8 100840 74
2005-07-18 09:16:42 51°13.654 2°55.9 5.4 332 19.8 100840 74
2005-07-18 09:16:47 51°13.661 2°55.884 5 319 19.8 100840 74
2005-07-18 09:16:52 51°13.668 2°55.869 5.8 328 19.8 100840 74
2005-07-18 09:16:58 51°13.677 2°55.852 5.8 307 19.8 100840 74
2005-07-18 09:17:03 51°13.684 2°55.837 5.3 305 19.8 100840 74
2005-07-18 09:17:07 51°13.69 2°55.824 5.1 327 19.8 100840 74
2005-07-18 09:17:12 51°13.697 2°55.81 3.7 37 19.8 100830 74
2005-07-18 09:17:17 51°13.703 2°55.797 3.5 325 19.8 100830 74
2005-07-18 09:17:23 51°13.712 2°55.78 3.6 328 19.8 100840 74
2005-07-18 09:17:27 51°13.718 2°55.767 4.6 321 19.8 100840 74
2005-07-18 09:17:32 51°13.724 2°55.755 5 322 19.8 100830 74
2005-07-18 09:17:37 51°13.731 2°55.741 3.9 316 19.8 100830 74
2005-07-18 09:17:42 51°13.739 2°55.727 4 318 19.8 100840 74
2005-07-18 09:17:47 51°13.746 2°55.715 3.3 293 19.8 100840 74
2005-07-18 09:17:53 51°13.755 2°55.703 4.2 280 19.7 100830 75
2005-07-18 09:17:57 51°13.762 2°55.693 3.2 276 19.7 100830 75
2005-07-18 09:18:03 51°13.771 2°55.681 2.9 289 19.7 100830 75
2005-07-18 09:18:07 51°13.779 2°55.673 2.6 288 19.7 100830 75
2005-07-18 09:18:13 51°13.789 2°55.662 1.9 281 19.8 100840 75
2005-07-18 09:18:17 51°13.797 2°55.655 1.5 289 19.8 100840 75
2005-07-18 09:18:22 51°13.807 2°55.647 1.7 296 19.8 100840 75
2005-07-18 09:18:27 51°13.817 2°55.64 0.6 300 19.8 100840 75
2005-07-18 09:18:31 51°13.825 2°55.634 1.1 302 19.7 100840 75
2005-07-18 09:18:37 51°13.837 2°55.626 1.6 349 19.7 100840 75
2005-07-18 09:18:42 51°13.848 2°55.62 2 349 19.7 100840 75
2005-07-18 09:18:47 51°13.858 2°55.613 1.9 285 19.7 100840 75
2005-07-18 09:18:51 51°13.867 2°55.608 1.4 332 19.7 100830 75
2005-07-18 09:18:58 51°13.881 2°55.6 2.4 305 19.7 100830 75
2005-07-18 09:19:03 51°13.893 2°55.594 1.9 277 19.7 100840 75
2005-07-18 09:19:07 51°13.903 2°55.589 0.8 279 19.7 100840 75
2005-07-18 09:19:11 51°13.912 2°55.584 0.5 297 19.7 100830 75
2005-07-18 09:19:17 51°13.925 2°55.577 2.4 332 19.7 100830 75
2005-07-18 09:19:23 51°13.939 2°55.568 2.5 343 19.7 100840 75
2005-07-18 09:19:27 51°13.949 2°55.562 2.5 6 19.7 100840 75
2005-07-18 09:19:31 51°13.959 2°55.557 4.3 340 19.7 100840 75
2005-07-18 09:19:37 51°13.971 2°55.55 3.9 330 19.7 100840 75
2005-07-18 09:19:41 51°13.981 2°55.544 3.7 322 19.7 100830 75
2005-07-18 09:19:47 51°13.995 2°55.536 2.5 306 19.7 100830 75
2005-07-18 09:19:53 51°14.008 2°55.528 3.9 292 19.7 100840 75
2005-07-18 09:19:57 51°14.017 2°55.522 2.4 307 19.7 100840 75
2005-07-18 09:20:03 51°14.03 2°55.514 2.2 287 19.7 100840 75
2005-07-18 09:20:07 51°14.04 2°55.507 2.4 319 19.7 100840 75
2005-07-18 09:20:11 51°14.049 2°55.502 2.7 321 19.7 100830 75
2005-07-18 09:20:16 51°14.06 2°55.494 4 288 19.7 100830 75
2005-07-18 09:20:23 51°14.074 2°55.484 3.5 299 19.7 100830 75
2005-07-18 09:20:28 51°14.086 2°55.476 3.1 297 19.7 100830 75
2005-07-18 09:20:33 51°14.097 2°55.466 3.1 285 19.7 100840 75
2005-07-18 09:20:37 51°14.109 2°55.458 3 306 19.7 100840 75
2005-07-18 09:20:42 51°14.121 2°55.449 2.3 309 19.8 100830 75
2005-07-18 09:20:47 51°14.133 2°55.438 3.4 302 19.8 100830 75
2005-07-18 09:20:53 51°14.147 2°55.427 3.2 294 19.7 100830 75
2005-07-18 09:20:57 51°14.157 2°55.418 3.1 310 19.7 100830 75
2005-07-18 09:21:03 51°14.173 2°55.404 3.3 229 19.7 100830 75
2005-07-18 09:21:07 51°14.184 2°55.393 3.1 303 19.7 100830 75
2005-07-18 09:21:13 51°14.199 2°55.379 2.7 319 19.7 100830 74
2005-07-18 09:21:17 51°14.21 2°55.367 4 335 19.7 100830 74
2005-07-18 09:21:22 51°14.222 2°55.352 4.2 341 19.7 100830 74
2005-07-18 09:21:27 51°14.234 2°55.337 4.4 346 19.7 100830 74
2005-07-18 09:21:32 51°14.245 2°55.323 3.9 41 19.7 100830 75
2005-07-18 09:21:38 51°14.258 2°55.304 6.6 308 19.7 100830 75
2005-07-18 09:21:43 51°14.269 2°55.287 8.6 328 19.7 100830 75
2005-07-18 09:21:47 51°14.278 2°55.272 7.9 346 19.7 100830 75
2005-07-18 09:21:53 51°14.289 2°55.253 6 312 19.7 100830 75
2005-07-18 09:21:57 51°14.298 2°55.237 5.9 314 19.7 100830 75
2005-07-18 09:22:03 51°14.308 2°55.217 5.7 310 19.7 100830 75
2005-07-18 09:22:07 51°14.316 2°55.2 5.2 312 19.7 100830 75
2005-07-18 09:22:11 51°14.324 2°55.185 4.6 42 19.7 100820 74
2005-07-18 09:22:17 51°14.334 2°55.163 5.9 328 19.7 100820 74
2005-07-18 09:22:22 51°14.343 2°55.144 7.1 341 19.7 100830 74
2005-07-18 09:22:27 51°14.353 2°55.125 6.2 334 19.7 100830 74
2005-07-18 09:22:31 51°14.36 2°55.11 5.9 345 19.7 100830 74
2005-07-18 09:22:37 51°14.371 2°55.087 9.3 321 19.7 100830 74
2005-07-18 09:22:42 51°14.381 2°55.068 8.1 230 19.7 100830 74
2005-07-18 09:22:47 51°14.391 2°55.05 6.8 315 19.7 100830 74
2005-07-18 09:22:52 51°14.402 2°55.032 6.1 317 19.7 100830 74
2005-07-18 09:22:57 51°14.412 2°55.017 6.3 313 19.7 100830 74
2005-07-18 09:23:01 51°14.422 2°55.005 5.2 315 19.7 100830 74
2005-07-18 09:23:07 51°14.44 2°54.989 3.9 311 19.7 100830 74
2005-07-18 09:23:13 51°14.457 2°54.978 4.2 38 19.7 100820 74
2005-07-18 09:23:18 51°14.473 2°54.97 4.9 313 19.7 100820 74
2005-07-18 09:23:22 51°14.487 2°54.965 4.3 318 19.7 100820 74
2005-07-18 09:23:27 51°14.503 2°54.961 4.3 318 19.7 100820 74
2005-07-18 09:23:33 51°14.522 2°54.957 4.3 312 19.7 100830 74
2005-07-18 09:23:37 51°14.537 2°54.954 4.6 308 19.7 100830 74
2005-07-18 09:23:41 51°14.551 2°54.95 4.9 306 19.7 100830 74
2005-07-18 09:23:47 51°14.574 2°54.945 4.2 307 19.7 100830 74
2005-07-18 09:23:52 51°14.591 2°54.942 4.1 312 19.7 100830 74
2005-07-18 09:23:57 51°14.612 2°54.937 4.2 318 19.7 100830 74
2005-07-18 09:24:03 51°14.632 2°54.932 4.5 316 19.7 100830 74
2005-07-18 09:24:07 51°14.649 2°54.928 4 318 19.7 100830 74
2005-07-18 09:24:12 51°14.667 2°54.923 4.3 320 19.7 100830 74
2005-07-18 09:24:18 51°14.69 2°54.917 5.4 321 19.7 100830 74
2005-07-18 09:24:22 51°14.707 2°54.912 4.9 321 19.7 100830 74
2005-07-18 09:24:27 51°14.726 2°54.907 4.8 315 19.7 100830 74
2005-07-18 09:24:31 51°14.742 2°54.903 5.1 310 19.7 100830 75
2005-07-18 09:24:37 51°14.763 2°54.897 4.3 228 19.7 100830 75
2005-07-18 09:24:43 51°14.787 2°54.892 3.9 317 19.7 100830 75
2005-07-18 09:24:47 51°14.804 2°54.887 3.9 43 19.7 100830 75
2005-07-18 09:24:51 51°14.819 2°54.883 3.8 227 19.6 100830 75
2005-07-18 09:24:56 51°14.839 2°54.878 4.1 316 19.6 100830 75
2005-07-18 09:25:02 51°14.86 2°54.873 4.8 333 19.7 100830 74
2005-07-18 09:25:07 51°14.881 2°54.867 4.9 328 19.7 100830 74
2005-07-18 09:25:13 51°14.903 2°54.861 5.1 321 19.6 100830 74
2005-07-18 09:25:17 51°14.918 2°54.856 4.7 321 19.6 100830 74
2005-07-18 09:25:21 51°14.934 2°54.851 4.8 324 19.7 100830 75
2005-07-18 09:25:27 51°14.959 2°54.844 4.8 319 19.7 100830 75
2005-07-18 09:25:33 51°14.98 2°54.838 4.6 327 19.6 100830 75
2005-07-18 09:25:37 51°14.995 2°54.833 4.7 228 19.6 100830 75
2005-07-18 09:25:42 51°15.015 2°54.827 4 319 19.6 100830 75
2005-07-18 09:25:47 51°15.036 2°54.821 4.9 325 19.6 100830 75
2005-07-18 09:25:51 51°15.051 2°54.816 4.7 321 19.6 100830 75
2005-07-18 09:25:56 51°15.071 2°54.811 3.7 322 19.6 100830 75
2005-07-18 09:26:03 51°15.096 2°54.803 5.1 325 19.6 100830 75
2005-07-18 09:26:07 51°15.113 2°54.798 5 316 19.6 100830 75
2005-07-18 09:26:12 51°15.132 2°54.791 5 42 19.6 100830 75
2005-07-18 09:26:17 51°15.151 2°54.784 4.7 317 19.6 100830 75
2005-07-18 09:26:22 51°15.169 2°54.778 5.7 229 19.7 100830 76
2005-07-18 09:26:27 51°15.189 2°54.77 4.6 306 19.7 100830 76
2005-07-18 09:26:33 51°15.211 2°54.763 4.1 306 19.6 100830 76
2005-07-18 09:26:37 51°15.228 2°54.757 5.5 42 19.6 100830 76
2005-07-18 09:26:42 51°15.247 2°54.751 5.4 314 19.6 100830 75
2005-07-18 09:26:47 51°15.266 2°54.745 4.8 315 19.6 100830 75
2005-07-18 09:26:53 51°15.288 2°54.738 5 312 19.6 100830 75
2005-07-18 09:26:57 51°15.305 2°54.733 4.8 309 19.6 100830 75
2005-07-18 09:27:03 51°15.327 2°54.727 4.5 308 19.6 100830 75
2005-07-18 09:27:07 51°15.344 2°54.721 4.8 311 19.6 100830 75
2005-07-18 09:27:12 51°15.362 2°54.716 4.5 309 19.6 100830 75
2005-07-18 09:27:17 51°15.381 2°54.709 5.2 316 19.6 100830 75
2005-07-18 09:27:23 51°15.404 2°54.702 5.3 314 19.6 100830 76
2005-07-18 09:27:27 51°15.421 2°54.696 6.4 324 19.6 100830 76
2005-07-18 09:27:32 51°15.441 2°54.688 6.4 316 19.6 100830 76
2005-07-18 09:27:37 51°15.458 2°54.682 5.6 317 19.6 100830 76
2005-07-18 09:27:42 51°15.479 2°54.674 5.8 319 19.6 100830 76
2005-07-18 09:27:48 51°15.5 2°54.666 5.3 317 19.6 100830 76
2005-07-18 09:27:53 51°15.519 2°54.659 5.3 43 19.6 100830 76
2005-07-18 09:27:57 51°15.537 2°54.652 5.5 321 19.6 100830 76
2005-07-18 09:28:03 51°15.558 2°54.644 6.6 314 19.6 100830 75
2005-07-18 09:28:07 51°15.575 2°54.638 6 312 19.6 100830 75
2005-07-18 09:28:12 51°15.592 2°54.631 6.3 228 19.6 100830 75
2005-07-18 09:28:17 51°15.611 2°54.624 5.9 313 19.6 100830 75
2005-07-18 09:28:23 51°15.634 2°54.615 5.7 309 19.6 100830 75
2005-07-18 09:28:27 51°15.652 2°54.608 5.9 42 19.6 100830 75
2005-07-18 09:28:32 51°15.671 2°54.601 5 318 19.6 100830 74
2005-07-18 09:28:37 51°15.69 2°54.593 5.7 311 19.6 100830 74
2005-07-18 09:28:42 51°15.709 2°54.586 5.4 314 19.6 100820 75
2005-07-18 09:28:47 51°15.728 2°54.578 5.6 41 19.6 100820 75
2005-07-18 09:28:52 51°15.747 2°54.571 5.9 42 19.6 100830 75
2005-07-18 09:28:57 51°15.767 2°54.564 6.6 311 19.6 100830 75
2005-07-18 09:29:03 51°15.788 2°54.556 6.2 310 19.6 100830 75
2005-07-18 09:29:08 51°15.807 2°54.548 5.9 309 19.6 100830 75
2005-07-18 09:29:11 51°15.82 2°54.543 6.1 307 19.6 100830 75
2005-07-18 09:29:17 51°15.841 2°54.536 5.5 302 19.6 100830 75
2005-07-18 09:29:23 51°15.864 2°54.527 5.3 309 19.6 100830 75
2005-07-18 09:29:27 51°15.881 2°54.52 5.2 314 19.6 100830 75
2005-07-18 09:29:33 51°15.902 2°54.512 4.8 317 19.6 100830 75
2005-07-18 09:29:37 51°15.917 2°54.506 6 314 19.6 100830 75
2005-07-18 09:29:42 51°15.936 2°54.5 5.4 318 19.6 100830 75
2005-07-18 09:29:47 51°15.957 2°54.492 5.6 316 19.6 100830 75
2005-07-18 09:29:53 51°15.976 2°54.486 5.1 314 19.6 100830 75
2005-07-18 09:29:57 51°15.989 2°54.481 4.9 301 19.6 100830 75
2005-07-18 09:30:02 51°16.007 2°54.475 4.9 301 19.6 100830 76
2005-07-18 09:30:08 51°16.023 2°54.47 4.3 298 19.6 100830 76
2005-07-18 09:30:12 51°16.034 2°54.467 4.4 295 19.6 100830 76
2005-07-18 09:30:17 51°16.047 2°54.462 3.7 292 19.6 100830 76
2005-07-18 09:30:22 51°16.061 2°54.457 4.5 294 19.6 100830 76
2005-07-18 09:30:27 51°16.073 2°54.452 5.1 289 19.6 100830 76
2005-07-18 09:30:32 51°16.085 2°54.448 4.6 292 19.6 100830 76
2005-07-18 09:30:37 51°16.095 2°54.444 4.3 287 19.6 100830 76
2005-07-18 09:30:42 51°16.107 2°54.44 4.6 293 19.6 100830 76
2005-07-18 09:30:47 51°16.118 2°54.436 4.9 276 19.6 100830 76
2005-07-18 09:30:52 51°16.128 2°54.433 4.8 284 19.6 100830 76
2005-07-18 09:30:57 51°16.138 2°54.43 5 280 19.6 100830 76
2005-07-18 09:31:02 51°16.148 2°54.426 5.3 277 19.6 100830 77
2005-07-18 09:31:07 51°16.158 2°54.423 5.8 274 19.6 100830 77